Location: Luxembourg
(49.6117°N, 6.1300°E)
Time: 20:31:54
(UTC+01:00)

ISS - Pass Details

Date: 05 December 2021
Orbit: 413 x 422 km, 51.6° (Epoch: 25 January)

Event Time Altitude Azimuth Distance (km) Brightness Sun altitude
Rises 16:59:50 0° 285° (WNW) 2,388 0.8 -4.0°
Reaches altitude 10° 17:01:57 10° 287° (WNW) 1,520 -0.2 -4.3°
Maximum altitude 17:05:22 77° 14° (NNE) 441 -3.7 -4.8°
Drops below altitude 10° 17:08:45 10° 101° (E) 1,510 -1.4 -5.3°
Enters shadow 17:10:43 - 103° (ESE) 2,317 -0.4 -5.6°
